EW4799 Weather Reports


time (UTC)temp
C
wind
direction
speed
KPH
gust
KPH
rain 1hr
cm
rain 24hr
cm
rain mn
cm
humidity
%
barometer
mb
20260507023051 13 0 0.0 3.2 0.00 0.00 0.00 75 1020.8
20260507021551 13 194 0.0 3.2 0.00 0.00 0.00 75 1020.7
20260507020054 14 214 0.0 3.2 0.00 0.00 0.00 75 1020.8
20260507014556 14 0 0.0 1.6 0.00 0.00 0.00 75 1020.8
20260507013109 14 0 0.0 4.8 0.00 0.00 0.00 75 1020.8
20260507011551 14 218 0.0 3.2 0.00 0.00 0.00 75 1020.8
20260507004554 14 233 0.0 3.2 0.00 0.00 0.00 75 1020.9
20260507003053 14 166 1.6 4.8 0.00 0.00 0.00 74 1021.0
20260507001558 14 190 0.0 8.0 0.00 0.00 0.00 74 1020.9
20260507000052 14 148 0.0 6.4 0.00 0.00 0.00 74 1021.0
20260506234551 14 148 1.6 6.4 0.00 0.00 0.00 72 1020.9
20260506233104 14 169 1.6 4.8 0.00 0.00 0.00 72 1020.9
20260506231553 14 160 0.0 6.4 0.00 0.00 0.00 73 1021.1
20260506230053 14 0 0.0 3.2 0.00 0.00 0.00 73 1021.1
20260506224554 13 275 0.0 4.8 0.00 0.00 0.00 74 1021.1
20260506223054 13 0 0.0 4.8 0.00 0.00 0.00 75 1021.2
20260506221558 13 0 0.0 4.8 0.00 0.00 0.00 74 1021.3
20260506220053 14 0 0.0 4.8 0.00 0.00 0.00 74 1021.3
20260506214553 13 204 0.0 3.2 0.00 0.00 0.00 74 1021.4
20260506213053 13 181 0.0 8.0 0.00 0.00 0.00 75 1021.3
20260506211608 13 217 0.0 6.4 0.00 0.00 0.00 76 1021.3
20260506210057 13 187 1.6 4.8 0.00 0.00 0.00 74 1021.3
20260506204558 13 193 0.0 3.2 0.00 0.00 0.00 77 1021.3
20260506203056 13 0 0.0 6.4 0.00 0.00 0.00 77 1021.2
20260506201553 13 200 0.0 3.2 0.00 0.00 0.00 78 1021.3
20260506200051 13 166 0.0 3.2 0.00 0.00 0.00 79 1021.2
20260506194555 13 214 0.0 4.8 0.00 0.00 0.00 80 1021.1
20260506193055 13 0 0.0 4.8 0.00 0.00 0.00 81 1021.0
20260506191553 13 125 0.0 4.8 0.00 0.00 0.00 82 1020.8
20260506190057 13 0 0.0 3.2 0.00 0.00 0.00 83 1020.9
20260506184607 13 170 0.0 4.8 0.00 0.00 0.00 83 1020.9
20260506183056 13 0 0.0 4.8 0.00 0.00 0.00 83 1020.9
20260506181553 13 176 0.0 6.4 0.00 0.00 0.00 83 1020.9
20260506174553 12 207 0.0 3.2 0.00 0.00 0.00 86 1020.5
20260506173107 12 0 0.0 1.6 0.00 0.00 0.00 86 1020.8
20260506171600 12 209 0.0 4.8 0.00 0.00 0.00 86 1020.9
20260506170100 12 181 0.0 4.8 0.00 0.00 0.00 86 1020.8
20260506164610 12 174 0.0 3.2 0.00 0.00 0.00 86 1020.6
20260506163102 12 0 0.0 1.6 0.00 0.00 0.00 85 1020.3
20260506161555 11 0 0.0 3.2 0.00 0.00 0.00 85 1020.1
20260506160107 11 169 0.0 4.8 0.00 0.00 0.00 85 1020.2
20260506154553 12 0 0.0 3.2 0.00 0.00 0.00 85 1020.2
20260506153055 12 0 0.0 3.2 0.00 0.00 0.00 85 1020.3
20260506151555 12 167 0.0 3.2 0.00 0.00 0.00 85 1020.2
20260506150128 12 0 0.0 1.6 0.00 0.00 0.00 85 1020.0
20260506144552 12 219 0.0 3.2 0.00 0.00 0.00 86 1020.1
20260506143050 12 0 0.0 1.6 0.00 0.00 0.00 86 1020.1
20260506141607 12 0 0.0 1.6 0.00 0.00 0.00 86 1019.8
20260506140053 12 168 0.0 3.2 0.00 0.00 0.00 86 1019.9
20260506134554 12 181 0.0 3.2 0.00 0.00 0.00 86 1019.8
20260506133106 12 0 0.0 1.6 0.00 0.00 0.00 86 1019.7
20260506131558 12 176 0.0 1.6 0.00 0.00 0.00 86 1019.6
20260506130055 12 176 0.0 3.2 0.00 0.00 0.00 86 1019.4
20260506124551 12 0 0.0 3.2 0.00 0.00 0.00 85 1019.2
20260506123056 12 0 0.0 3.2 0.00 0.00 0.00 85 1019.1
20260506121610 12 0 0.0 3.2 0.00 0.00 0.00 85 1019.1
20260506120118 12 206 0.0 3.2 0.00 0.00 0.00 84 1019.2
20260506114602 12 210 0.0 6.4 0.00 0.00 0.00 84 1018.9
20260506113056 12 300 0.0 6.4 0.00 0.00 0.00 84 1018.9
20260506111555 12 179 0.0 3.2 0.00 0.00 0.00 83 1018.8
20260506110055 12 165 0.0 4.8 0.00 0.00 0.00 83 1018.7
20260506104550 12 176 0.0 4.8 0.00 0.00 0.00 83 1018.7
20260506103053 12 198 0.0 6.4 0.00 0.00 0.00 84 1018.6
20260506101550 12 167 1.6 4.8 0.00 0.00 0.00 83 1018.5
20260506100054 12 169 0.0 8.0 0.00 0.00 0.00 84 1018.4
20260506094554 12 240 0.0 4.8 0.00 0.00 0.00 84 1018.1
20260506093054 12 181 1.6 4.8 0.00 0.00 0.00 84 1018.1
20260506091551 12 158 1.6 8.0 0.00 0.00 0.00 84 1017.9
20260506090050 12 0 0.0 3.2 0.00 0.00 0.00 84 1017.8
20260506084549 12 160 0.0 3.2 0.00 0.00 0.00 84 1017.6
20260506083053 12 181 0.0 3.2 0.00 0.00 0.00 84 1017.5
20260506081554 12 215 0.0 1.6 0.00 0.00 0.00 84 1017.4
20260506073059 12 0 0.0 1.6 0.00 0.00 0.00 85 1017.4
20260506071554 12 0 0.0 1.6 0.00 0.00 0.00 86 1017.3
20260506070115 12 0 0.0 0.0 0.00 0.00 0.00 86 1017.3
20260506061556 12 0 0.0 0.0 0.00 0.00 0.00 85 1016.9
20260506050114 14 0 0.0 0.0 0.00 0.00 0.00 81 1016.2
20260506044602 15 0 0.0 0.0 0.00 0.00 0.00 80 1016.2
20260506043051 15 0 0.0 0.0 0.00 0.00 0.00 79 1016.2
20260506041556 15 0 0.0 0.0 0.00 0.00 0.00 80 1016.2
20260506040051 15 0 0.0 0.0 0.00 0.00 0.00 79 1016.1
20260506034552 15 0 0.0 0.0 0.00 0.00 0.00 76 1015.8
20260506033052 16 0 0.0 0.0 0.00 0.00 0.00 73 1015.7
20260506031559 17 0 0.0 1.6 0.00 0.00 0.00 71 1015.5
20260506030113 17 0 0.0 1.6 0.00 0.00 0.00 69 1015.5
20260506024555 18 0 0.0 3.2 0.00 0.00 0.00 66 1015.5